| time (UTC) | temp F | wind direction | speed MPH | gust MPH | rain 1hr in | rain 24hr in | rain mn in | humidity % | barometer mb |
| 20260508045711 | 78 | 0 | 0.0 | 0.0 | 0.00 | 0.00 | 0.00 | 19 | 1009.0 |
| 20260508044811 | 78 | 0 | 0.0 | 0.0 | 0.00 | 0.00 | 0.00 | 18 | 1008.9 |
| 20260508043012 | 79 | 0 | 0.0 | 0.0 | 0.00 | 0.00 | 0.00 | 17 | 1008.8 |
| 20260508042111 | 80 | 0 | 0.0 | 0.0 | 0.00 | 0.00 | 0.00 | 16 | 1008.7 |
| 20260508041211 | 81 | 0 | 0.0 | 0.0 | 0.00 | 0.00 | 0.00 | 16 | 1008.6 |
| 20260508040311 | 82 | 262 | 1.0 | 2.0 | 0.00 | 0.00 | 0.00 | 15 | 1008.6 |
| 20260508035411 | 82 | 262 | 2.0 | 3.0 | 0.00 | 0.00 | 0.00 | 14 | 1008.5 |
| 20260508034511 | 83 | 265 | 2.0 | 4.0 | 0.00 | 0.00 | 0.00 | 14 | 1008.3 |
| 20260508033611 | 84 | 274 | 2.0 | 4.0 | 0.00 | 0.00 | 0.00 | 14 | 1008.2 |
| 20260508032711 | 84 | 279 | 2.0 | 3.0 | 0.00 | 0.00 | 0.00 | 13 | 1008.0 |
| 20260508030911 | 86 | 270 | 3.0 | 4.0 | 0.00 | 0.00 | 0.00 | 13 | 1007.9 |
| 20260508030011 | 87 | 255 | 4.0 | 6.0 | 0.00 | 0.00 | 0.00 | 12 | 1007.7 |
| 20260508025111 | 88 | 255 | 5.0 | 8.0 | 0.00 | 0.00 | 0.00 | 11 | 1007.7 |
| 20260508024211 | 88 | 256 | 5.0 | 9.0 | 0.00 | 0.00 | 0.00 | 11 | 1007.6 |
| 20260508022411 | 89 | 253 | 6.0 | 10.0 | 0.00 | 0.00 | 0.00 | 10 | 1007.3 |
| 20260508021511 | 90 | 257 | 7.0 | 12.0 | 0.00 | 0.00 | 0.00 | 10 | 1007.3 |
| 20260508020611 | 90 | 262 | 7.0 | 14.0 | 0.00 | 0.00 | 0.00 | 9 | 1007.2 |
| 20260508015711 | 91 | 280 | 7.0 | 12.0 | 0.00 | 0.00 | 0.00 | 9 | 1007.1 |
| 20260508014811 | 92 | 278 | 6.0 | 11.0 | 0.00 | 0.00 | 0.00 | 9 | 1007.1 |
| 20260508013911 | 92 | 267 | 5.0 | 10.0 | 0.00 | 0.00 | 0.00 | 8 | 1007.0 |
| 20260508013012 | 93 | 263 | 5.0 | 9.0 | 0.00 | 0.00 | 0.00 | 8 | 1006.9 |
| 20260508012111 | 93 | 263 | 7.0 | 12.0 | 0.00 | 0.00 | 0.00 | 8 | 1007.0 |
| 20260508011211 | 94 | 276 | 6.0 | 11.0 | 0.00 | 0.00 | 0.00 | 8 | 1006.8 |
| 20260508010312 | 94 | 285 | 7.0 | 12.0 | 0.00 | 0.00 | 0.00 | 7 | 1006.9 |
| 20260508005411 | 95 | 266 | 6.0 | 13.0 | 0.00 | 0.00 | 0.00 | 7 | 1006.8 |
| 20260508004511 | 95 | 270 | 4.0 | 9.0 | 0.00 | 0.00 | 0.00 | 7 | 1006.7 |
| 20260508003612 | 95 | 231 | 3.0 | 9.0 | 0.00 | 0.00 | 0.00 | 7 | 1006.8 |
| 20260508001812 | 95 | 225 | 4.0 | 7.0 | 0.00 | 0.00 | 0.00 | 7 | 1006.7 |
| 20260508000911 | 96 | 265 | 4.0 | 12.0 | 0.00 | 0.00 | 0.00 | 6 | 1006.8 |
| 20260508000011 | 96 | 244 | 3.0 | 10.0 | 0.00 | 0.00 | 0.00 | 7 | 1006.8 |
| 20260507235111 | 95 | 192 | 3.0 | 7.0 | 0.00 | 0.00 | 0.00 | 6 | 1006.8 |
| 20260507234212 | 95 | 23 | 4.0 | 9.0 | 0.00 | 0.00 | 0.00 | 7 | 1006.9 |
| 20260507233311 | 96 | 291 | 3.0 | 10.0 | 0.00 | 0.00 | 0.00 | 6 | 1007.0 |
| 20260507232411 | 96 | 338 | 3.0 | 8.0 | 0.00 | 0.00 | 0.00 | 6 | 1007.0 |
| 20260507231511 | 96 | 307 | 4.0 | 9.0 | 0.00 | 0.00 | 0.00 | 6 | 1007.1 |
| 20260507230611 | 96 | 98 | 2.0 | 11.0 | 0.00 | 0.00 | 0.00 | 6 | 1007.1 |
| 20260507223012 | 96 | 267 | 3.0 | 9.0 | 0.00 | 0.00 | 0.00 | 6 | 1007.6 |
| 20260507222111 | 96 | 317 | 6.0 | 11.0 | 0.00 | 0.00 | 0.00 | 6 | 1007.8 |
| 20260507221211 | 98 | 301 | 6.0 | 12.0 | 0.00 | 0.00 | 0.00 | 6 | 1007.8 |
| 20260507220311 | 98 | 295 | 6.0 | 11.0 | 0.00 | 0.00 | 0.00 | 6 | 1008.0 |
| 20260507215411 | 96 | 272 | 3.0 | 10.0 | 0.00 | 0.00 | 0.00 | 6 | 1008.0 |
| 20260507213611 | 96 | 190 | 4.0 | 11.0 | 0.00 | 0.00 | 0.00 | 7 | 1008.3 |
| 20260507212711 | 96 | 190 | 3.0 | 10.0 | 0.00 | 0.00 | 0.00 | 7 | 1008.4 |
| 20260507211810 | 96 | 219 | 3.0 | 9.0 | 0.00 | 0.00 | 0.00 | 8 | 1008.6 |
| 20260507210911 | 97 | 182 | 4.0 | 8.0 | 0.00 | 0.00 | 0.00 | 8 | 1008.8 |
| 20260507210011 | 97 | 237 | 4.0 | 13.0 | 0.00 | 0.00 | 0.00 | 7 | 1008.8 |
| 20260507204210 | 97 | 273 | 3.0 | 10.0 | 0.00 | 0.00 | 0.00 | 8 | 1009.1 |
| 20260507203311 | 96 | 31 | 3.0 | 5.0 | 0.00 | 0.00 | 0.00 | 8 | 1009.2 |
| 20260507202411 | 94 | 299 | 4.0 | 9.0 | 0.00 | 0.00 | 0.00 | 8 | 1009.4 |
| 20260507201511 | 95 | 186 | 4.0 | 9.0 | 0.00 | 0.00 | 0.00 | 8 | 1009.5 |
| 20260507195710 | 95 | 213 | 3.0 | 8.0 | 0.00 | 0.00 | 0.00 | 9 | 1009.8 |
| 20260507194811 | 94 | 188 | 3.0 | 7.0 | 0.00 | 0.00 | 0.00 | 9 | 1009.9 |
| 20260507193912 | 94 | 184 | 3.0 | 10.0 | 0.00 | 0.00 | 0.00 | 10 | 1010.2 |
| 20260507193011 | 94 | 213 | 3.0 | 8.0 | 0.00 | 0.00 | 0.00 | 10 | 1010.3 |
| 20260507192111 | 94 | 154 | 2.0 | 8.0 | 0.00 | 0.00 | 0.00 | 10 | 1010.4 |
| 20260507191211 | 91 | 166 | 2.0 | 5.0 | 0.00 | 0.00 | 0.00 | 10 | 1010.6 |
| 20260507190310 | 91 | 161 | 3.0 | 4.0 | 0.00 | 0.00 | 0.00 | 10 | 1010.8 |
| 20260507184510 | 91 | 141 | 3.0 | 6.0 | 0.00 | 0.00 | 0.00 | 10 | 1010.9 |
| 20260507183610 | 90 | 117 | 4.0 | 8.0 | 0.00 | 0.00 | 0.00 | 11 | 1011.1 |
| 20260507182710 | 91 | 172 | 3.0 | 7.0 | 0.00 | 0.00 | 0.00 | 11 | 1011.2 |
| 20260507181810 | 90 | 249 | 3.0 | 9.0 | 0.00 | 0.00 | 0.00 | 12 | 1011.3 |
| 20260507180910 | 90 | 241 | 3.0 | 9.0 | 0.00 | 0.00 | 0.00 | 12 | 1011.4 |
| 20260507180011 | 89 | 196 | 4.0 | 13.0 | 0.00 | 0.00 | 0.00 | 13 | 1011.5 |
| 20260507175110 | 88 | 127 | 3.0 | 13.0 | 0.00 | 0.00 | 0.00 | 13 | 1011.5 |
| 20260507174210 | 88 | 160 | 3.0 | 7.0 | 0.00 | 0.00 | 0.00 | 15 | 1011.7 |
| 20260507173310 | 88 | 175 | 3.0 | 8.0 | 0.00 | 0.00 | 0.00 | 15 | 1011.9 |
| 20260507171511 | 86 | 151 | 4.0 | 9.0 | 0.00 | 0.00 | 0.00 | 15 | 1011.9 |
| 20260507170610 | 86 | 156 | 4.0 | 11.0 | 0.00 | 0.00 | 0.00 | 17 | 1012.0 |
| 20260507165710 | 84 | 146 | 2.0 | 9.0 | 0.00 | 0.00 | 0.00 | 18 | 1012.0 |
| 20260507164810 | 84 | 94 | 3.0 | 4.0 | 0.00 | 0.00 | 0.00 | 19 | 1012.1 |
| 20260507163910 | 84 | 116 | 3.0 | 7.0 | 0.00 | 0.00 | 0.00 | 19 | 1012.2 |
| 20260507163010 | 83 | 154 | 3.0 | 6.0 | 0.00 | 0.00 | 0.00 | 22 | 1012.1 |
| 20260507162110 | 81 | 150 | 2.0 | 6.0 | 0.00 | 0.00 | 0.00 | 23 | 1012.2 |
| 20260507161210 | 82 | 119 | 2.0 | 7.0 | 0.00 | 0.00 | 0.00 | 24 | 1012.3 |
| 20260507160310 | 82 | 129 | 3.0 | 5.0 | 0.00 | 0.00 | 0.00 | 24 | 1012.4 |
| 20260507155410 | 81 | 143 | 2.0 | 6.0 | 0.00 | 0.00 | 0.00 | 25 | 1012.5 |
| 20260507154510 | 81 | 99 | 3.0 | 7.0 | 0.00 | 0.00 | 0.00 | 24 | 1012.5 |
| 20260507153610 | 81 | 84 | 4.0 | 7.0 | 0.00 | 0.00 | 0.00 | 21 | 1012.5 |
| 20260507152710 | 80 | 91 | 5.0 | 8.0 | 0.00 | 0.00 | 0.00 | 22 | 1012.5 |
| 20260507151810 | 79 | 95 | 5.0 | 10.0 | 0.00 | 0.00 | 0.00 | 22 | 1012.5 |
| 20260507150910 | 79 | 87 | 5.0 | 10.0 | 0.00 | 0.00 | 0.00 | 22 | 1012.5 |
| 20260507150010 | 78 | 85 | 4.0 | 9.0 | 0.00 | 0.00 | 0.00 | 22 | 1012.4 |
| 20260507145110 | 78 | 66 | 4.0 | 10.0 | 0.00 | 0.00 | 0.00 | 23 | 1012.4 |
| 20260507144210 | 77 | 59 | 3.0 | 9.0 | 0.00 | 0.00 | 0.00 | 24 | 1012.4 |
| 20260507143310 | 76 | 38 | 2.0 | 5.0 | 0.00 | 0.00 | 0.00 | 26 | 1012.5 |
| 20260507142410 | 75 | 59 | 2.0 | 4.0 | 0.00 | 0.00 | 0.00 | 27 | 1012.5 |
| 20260507141510 | 73 | 60 | 2.0 | 4.0 | 0.00 | 0.00 | 0.00 | 29 | 1012.4 |
| 20260507135710 | 71 | 31 | 5.0 | 8.0 | 0.00 | 0.00 | 0.00 | 30 | 1012.2 |
| 20260507134810 | 70 | 25 | 6.0 | 12.0 | 0.00 | 0.00 | 0.00 | 30 | 1012.2 |
| 20260507133910 | 70 | 20 | 4.0 | 11.0 | 0.00 | 0.00 | 0.00 | 30 | 1012.2 |
| 20260507132110 | 68 | 25 | 3.0 | 10.0 | 0.00 | 0.00 | 0.00 | 32 | 1012.1 |
| 20260507131211 | 67 | 350 | 2.0 | 6.0 | 0.00 | 0.00 | 0.00 | 34 | 1012.1 |
| 20260507130310 | 66 | 26 | 2.0 | 4.0 | 0.00 | 0.00 | 0.00 | 34 | 1011.9 |
| 20260507125410 | 66 | 29 | 2.0 | 3.0 | 0.00 | 0.00 | 0.00 | 35 | 1012.0 |
| 20260507123610 | 65 | 24 | 3.0 | 5.0 | 0.00 | 0.00 | 0.00 | 34 | 1011.9 |
| 20260507121810 | 64 | 55 | 1.0 | 3.0 | 0.00 | 0.00 | 0.00 | 36 | 1012.0 |
| 20260507120910 | 64 | 55 | 1.0 | 2.0 | 0.00 | 0.00 | 0.00 | 37 | 1012.0 |
| 20260507120010 | 64 | 56 | 0.0 | 3.0 | 0.00 | 0.00 | 0.00 | 36 | 1011.9 |
| 20260507115110 | 64 | 57 | 1.0 | 3.0 | 0.00 | 0.00 | 0.00 | 36 | 1011.9 |
| 20260507114210 | 64 | 57 | 0.0 | 2.0 | 0.00 | 0.00 | 0.00 | 36 | 1011.7 |
| 20260507113310 | 64 | 57 | 0.0 | 2.0 | 0.00 | 0.00 | 0.00 | 36 | 1011.8 |
| 20260507111510 | 66 | 56 | 2.0 | 5.0 | 0.00 | 0.00 | 0.00 | 33 | 1011.7 |
| 20260507110610 | 67 | 46 | 3.0 | 5.0 | 0.00 | 0.00 | 0.00 | 32 | 1011.8 |
| 20260507105710 | 67 | 25 | 3.0 | 6.0 | 0.00 | 0.00 | 0.00 | 33 | 1011.9 |
| 20260507104810 | 66 | 27 | 2.0 | 4.0 | 0.00 | 0.00 | 0.00 | 33 | 1012.0 |
| 20260507103910 | 66 | 29 | 1.0 | 3.0 | 0.00 | 0.00 | 0.00 | 34 | 1012.1 |
| 20260507103010 | 66 | 29 | 0.0 | 3.0 | 0.00 | 0.00 | 0.00 | 34 | 1012.1 |
| 20260507102110 | 67 | 0 | 0.0 | 0.0 | 0.00 | 0.00 | 0.00 | 33 | 1012.2 |
| 20260507101210 | 66 | 30 | 1.0 | 3.0 | 0.00 | 0.00 | 0.00 | 34 | 1012.3 |
| 20260507100310 | 68 | 30 | 2.0 | 4.0 | 0.00 | 0.00 | 0.00 | 33 | 1012.4 |
| 20260507095409 | 68 | 31 | 2.0 | 4.0 | 0.00 | 0.00 | 0.00 | 33 | 1012.4 |
| 20260507094510 | 67 | 37 | 2.0 | 4.0 | 0.00 | 0.00 | 0.00 | 33 | 1012.5 |
| 20260507093610 | 67 | 50 | 1.0 | 4.0 | 0.00 | 0.00 | 0.00 | 34 | 1012.5 |
| 20260507092710 | 67 | 50 | 2.0 | 3.0 | 0.00 | 0.00 | 0.00 | 34 | 1012.5 |
| 20260507090910 | 68 | 51 | 2.0 | 3.0 | 0.00 | 0.00 | 0.00 | 32 | 1012.5 |
| 20260507090010 | 68 | 51 | 2.0 | 3.0 | 0.00 | 0.00 | 0.00 | 32 | 1012.5 |
| 20260507085110 | 68 | 52 | 2.0 | 4.0 | 0.00 | 0.00 | 0.00 | 32 | 1012.6 |
| 20260507083310 | 68 | 55 | 0.0 | 3.0 | 0.00 | 0.00 | 0.00 | 32 | 1012.7 |
| 20260507081509 | 68 | 343 | 1.0 | 2.0 | 0.00 | 0.00 | 0.00 | 34 | 1012.8 |
| 20260507080609 | 68 | 342 | 2.0 | 3.0 | 0.00 | 0.00 | 0.00 | 33 | 1012.8 |
| 20260507075710 | 69 | 341 | 1.0 | 4.0 | 0.00 | 0.00 | 0.00 | 33 | 1012.8 |
| 20260507074810 | 68 | 340 | 1.0 | 3.0 | 0.00 | 0.00 | 0.00 | 34 | 1012.8 |
| 20260507073909 | 68 | 340 | 1.0 | 2.0 | 0.00 | 0.00 | 0.00 | 34 | 1012.9 |
| 20260507073009 | 68 | 339 | 0.0 | 2.0 | 0.00 | 0.00 | 0.00 | 34 | 1012.8 |
| 20260507072110 | 69 | 0 | 0.0 | 0.0 | 0.00 | 0.00 | 0.00 | 33 | 1012.7 |
| 20260507070310 | 71 | 337 | 2.0 | 4.0 | 0.00 | 0.00 | 0.00 | 31 | 1012.8 |
| 20260507065409 | 70 | 330 | 1.0 | 4.0 | 0.00 | 0.00 | 0.00 | 31 | 1012.7 |
| 20260507064509 | 70 | 299 | 0.0 | 3.0 | 0.00 | 0.00 | 0.00 | 32 | 1012.7 |
| 20260507062709 | 70 | 0 | 0.0 | 0.0 | 0.00 | 0.00 | 0.00 | 31 | 1012.6 |
| 20260507060909 | 71 | 0 | 0.0 | 0.0 | 0.00 | 0.00 | 0.00 | 31 | 1012.6 |
| 20260507060009 | 71 | 0 | 0.0 | 0.0 | 0.00 | 0.00 | 0.00 | 30 | 1012.6 |
| 20260507054209 | 72 | 0 | 0.0 | 0.0 | 0.00 | 0.00 | 0.00 | 29 | 1012.6 |
| 20260507053309 | 72 | 0 | 0.0 | 0.0 | 0.00 | 0.00 | 0.00 | 29 | 1012.7 |
| 20260507052409 | 72 | 0 | 0.0 | 0.0 | 0.00 | 0.00 | 0.00 | 29 | 1012.7 |
| 20260507051509 | 73 | 266 | 0.0 | 1.0 | 0.00 | 0.00 | 0.00 | 28 | 1012.7 |
| 20260507050609 | 74 | 265 | 1.0 | 2.0 | 0.00 | 0.00 | 0.00 | 27 | 1012.6 |